Weather History for Dumas, TX

Change the Weather History Date:

Friday, October 11, 2013

  Actual Average (KBGD) Record (KBGD)
Temperature  
Mean Temperature 59 °F 62 °F  
Max Temperature 75 °F 75 °F 94 °F (1962)
Min Temperature 43 °F 50 °F 29 °F (2009)
Degree Days  
Heating Degree Days 6 5  
Month to date heating degree days 43  
Since 1 July heating degree days 71  
Cooling Degree Days 0 2  
Month to date cooling degree days 32  
Year to date cooling degree days 1817  
Growing Degree Days 9 (Base 50)    
Moisture  
Dew Point 27 °F    
Average Humidity 34    
Maximum Humidity 63    
Minimum Humidity 14    
Precipitation  
Precipitation 0.05 in 0.06 in 0.76 in (1974)
Month to date precipitation 0.74  
Year to date precipitation 19.13  
Snow  
Snow 0.00 in - T in (2009)
Month to date snowfall  
Since 1 July snowfall  
Since 1 September snowfall  
Snow Depth -    
Sea Level Pressure  
Sea Level Pressure 29.85 in    
Wind  
Wind Speed 13 mph (SW)    
Max Wind Speed 23 mph    
Max Gust Speed 30 mph    
Visibility 10 miles    
Events      
T = Trace of Precipitation, MM = Missing Value Source: NWS Daily Summary

Daily Weather History Graph

Daily Weather History Graph

Search for Another Location

Airport:

Trip Planner

Search our weather history database for the weather conditions in past years. The results will help you decide how hot, cold, wet, or windy it might be!

Date:

Astronomy

Oct. 11, 2013 Rise Set
Actual Time 7:51 AM CDT 7:17 PM CDT
Civil Twilight 7:25 AM CDT 7:42 PM CDT
Nautical Twilight 6:56 AM CDT 8:12 PM CDT
Astronomical Twilight 6:26 AM CDT 8:42 PM CDT
Moon 2:29 PM CDT (10/11) 12:05 AM CDT (10/11)
Length of Visible Light 12h 17m
Length of Day
11h 25m
Waxing Crescent, 47% of the Moon is Illuminated
Oct 11
Waxing Crescent
Oct 11
First Quarter
Oct 18
Full
Oct 26
Last Quarter
Nov 3
New

Hourly Weather History & Observations

Time (CDT) Temp. Windchill Dew Point Humidity Pressure Visibility Wind Dir Wind Speed Gust Speed Precip Events Conditions
12:15 AM 60.8 °F - 41.0 °F 48% 29.84 in 10.0 mi WSW 11.5 mph 16.1 mph N/A   Clear
12:35 AM 59.4 °F - 39.7 °F 48% 29.84 in 10.0 mi WSW 10.4 mph - N/A   Clear
12:55 AM 57.2 °F - 38.3 °F 49% 29.84 in 10.0 mi WSW 8.1 mph - N/A   Clear
1:15 AM 55.2 °F - 38.3 °F 53% 29.84 in 10.0 mi WSW 9.2 mph - N/A   Clear
1:55 AM 53.1 °F - 35.2 °F 51% 29.83 in 10.0 mi SSW 8.1 mph - N/A   Clear
2:15 AM 53.1 °F - 34.2 °F 49% 29.82 in 10.0 mi SW 10.4 mph - N/A   Clear
2:35 AM 51.3 °F - 34.0 °F 52% 29.82 in 10.0 mi SW 10.4 mph - N/A   Clear
2:55 AM 51.1 °F - 32.2 °F 48% 29.82 in 10.0 mi SW 9.2 mph - N/A   Clear
3:15 AM 50.5 °F - 31.8 °F 49% 29.81 in 10.0 mi SW 10.4 mph - N/A   Clear
3:35 AM 52.7 °F - 29.3 °F 41% 29.81 in 10.0 mi SW 10.4 mph - N/A   Clear
3:55 AM 49.1 °F - 29.7 °F 47% 29.81 in 10.0 mi WSW 8.1 mph - N/A   Clear
4:15 AM 43.0 °F 37.7 °F 31.3 °F 63% 29.81 in 10.0 mi South 9.2 mph - N/A   Clear
4:35 AM 45.1 °F 39.1 °F 31.1 °F 58% 29.81 in 10.0 mi SW 12.7 mph - N/A   Clear
4:55 AM 46.4 °F 41.9 °F 27.1 °F 47% 29.81 in 10.0 mi SW 9.2 mph - N/A   Clear
5:15 AM 45.9 °F 41.2 °F 27.0 °F 48% 29.81 in 10.0 mi SW 9.2 mph - N/A   Clear
5:35 AM 43.7 °F 37.7 °F 26.4 °F 51% 29.81 in 10.0 mi SW 11.5 mph - N/A   Clear
5:55 AM 47.3 °F - 25.9 °F 43% 29.81 in 10.0 mi SW 17.3 mph - N/A   Clear
6:15 AM 47.3 °F - 25.7 °F 43% 29.82 in 10.0 mi SW 13.8 mph - N/A   Clear
6:35 AM 45.9 °F 40.0 °F 26.4 °F 47% 29.82 in 10.0 mi SW 12.7 mph - N/A   Clear
6:55 AM 44.6 °F 39.2 °F 25.9 °F 48% 29.82 in 10.0 mi SW 10.4 mph - N/A   Clear
7:15 AM 43.7 °F 38.1 °F 26.1 °F 50% 29.82 in 10.0 mi SSW 10.4 mph - N/A   Clear
7:35 AM 44.4 °F 39.0 °F 25.7 °F 48% 29.83 in 10.0 mi SW 10.4 mph - N/A   Clear
7:55 AM 45.5 °F 39.2 °F 25.5 °F 46% 29.82 in 10.0 mi SW 13.8 mph - N/A   Clear
8:15 AM 45.5 °F 39.2 °F 26.1 °F 47% 29.83 in 10.0 mi SW 13.8 mph - N/A   Clear
8:35 AM 46.9 °F - 26.8 °F 45% 29.84 in 10.0 mi SW 13.8 mph - N/A   Clear
8:55 AM 48.7 °F - 28.2 °F 45% 29.85 in 10.0 mi SW 17.3 mph 25.3 mph N/A   Clear
9:15 AM 50.2 °F - 29.3 °F 45% 29.85 in 10.0 mi SW 16.1 mph - N/A   Clear
9:35 AM 51.8 °F - 29.3 °F 42% 29.86 in 10.0 mi SW 21.9 mph 27.6 mph N/A   Clear
9:55 AM 53.2 °F - 29.5 °F 40% 29.85 in 10.0 mi SW 21.9 mph 26.5 mph N/A   Clear
10:15 AM 55.4 °F - 29.7 °F 37% 29.85 in 10.0 mi WSW 21.9 mph - N/A   Clear
10:35 AM 57.2 °F - 29.7 °F 35% 29.85 in 10.0 mi SW 23.0 mph - N/A   Clear
10:55 AM 58.5 °F - 30.2 °F 34% 29.86 in 10.0 mi SW 23.0 mph 28.8 mph N/A   Clear
11:15 AM 61.0 °F - 29.5 °F 30% 29.86 in 10.0 mi SW 20.7 mph 24.2 mph N/A   Clear
11:35 AM 63.1 °F - 28.2 °F 27% 29.86 in 10.0 mi SW 20.7 mph 25.3 mph N/A   Clear
11:55 AM 64.6 °F - 27.9 °F 25% 29.86 in 10.0 mi SW 19.6 mph - N/A   Clear
12:15 PM 65.7 °F - 28.2 °F 24% 29.85 in 10.0 mi WSW 23.0 mph 26.5 mph N/A   Clear
12:35 PM 67.1 °F - 28.9 °F 24% 29.86 in 10.0 mi WSW 19.6 mph 24.2 mph N/A   Clear
12:55 PM 67.6 °F - 28.8 °F 23% 29.86 in 10.0 mi WSW 17.3 mph 24.2 mph N/A   Clear
1:15 PM 68.5 °F - 28.6 °F 22% 29.85 in 10.0 mi WSW 20.7 mph 26.5 mph N/A   Clear
1:35 PM 70.7 °F - 28.8 °F 21% 29.84 in 10.0 mi SW 18.4 mph 25.3 mph N/A   Clear
1:55 PM 70.9 °F - 27.5 °F 20% 29.84 in 10.0 mi SW 19.6 mph 25.3 mph N/A   Clear
2:15 PM 71.4 °F - 26.4 °F 19% 29.83 in 10.0 mi SW 18.4 mph 29.9 mph N/A   Clear
2:35 PM 72.1 °F - 25.7 °F 18% 29.83 in 10.0 mi SW 18.4 mph 25.3 mph N/A   Clear
2:55 PM 72.7 °F - 25.9 °F 17% 29.82 in 10.0 mi WSW 13.8 mph 23.0 mph N/A   Clear
3:15 PM 73.4 °F - 24.3 °F 16% 29.82 in 10.0 mi WSW 16.1 mph 25.3 mph N/A   Clear
3:35 PM 73.8 °F - 23.5 °F 15% 29.81 in 10.0 mi WSW 17.3 mph 21.9 mph N/A   Clear
3:55 PM 75.0 °F - 23.5 °F 15% 29.82 in 10.0 mi WSW 18.4 mph 24.2 mph N/A   Clear
4:15 PM 75.2 °F - 23.5 °F 15% 29.82 in 10.0 mi WSW 16.1 mph 21.9 mph N/A   Clear
4:35 PM 75.6 °F - 24.3 °F 15% 29.82 in 10.0 mi WSW 16.1 mph 23.0 mph N/A   Clear
4:55 PM 75.2 °F - 23.9 °F 15% 29.82 in 10.0 mi WSW 18.4 mph 25.3 mph N/A   Clear
5:15 PM 75.4 °F - 23.9 °F 15% 29.82 in 10.0 mi WSW 17.3 mph 21.9 mph N/A   Clear
5:35 PM 74.8 °F - 22.8 °F 14% 29.83 in 10.0 mi WSW 16.1 mph 23.0 mph N/A   Clear
5:55 PM 74.3 °F - 21.9 °F 14% 29.83 in 10.0 mi WSW 16.1 mph - N/A   Clear
6:15 PM 73.6 °F - 21.7 °F 14% 29.84 in 10.0 mi WSW 15.0 mph 23.0 mph N/A   Clear
6:35 PM 72.3 °F - 21.2 °F 15% 29.84 in 10.0 mi SW 13.8 mph - N/A   Clear
6:55 PM 70.3 °F - 21.2 °F 16% 29.85 in 10.0 mi SW 11.5 mph - N/A   Clear
7:15 PM 66.6 °F - 22.1 °F 18% 29.86 in 10.0 mi SW 9.2 mph - N/A   Clear
7:35 PM 61.7 °F - 21.7 °F 22% 29.86 in 10.0 mi SW 8.1 mph - N/A   Clear
7:55 PM 59.7 °F - 21.4 °F 23% 29.87 in 10.0 mi SW 9.2 mph - N/A   Clear
8:15 PM 58.1 °F - 21.9 °F 25% 29.88 in 10.0 mi SW 9.2 mph - N/A   Clear
8:35 PM 56.3 °F - 21.2 °F 26% 29.89 in 10.0 mi SW 6.9 mph - N/A   Clear
8:55 PM 52.9 °F - 21.4 °F 29% 29.90 in 10.0 mi SW 5.8 mph - N/A   Clear
9:15 PM 53.1 °F - 21.7 °F 29% 29.90 in 10.0 mi SW 8.1 mph - N/A   Clear
9:35 PM 53.8 °F - 21.7 °F 29% 29.90 in 10.0 mi SW 9.2 mph - N/A   Clear
9:55 PM 54.0 °F - 21.7 °F 29% 29.90 in 10.0 mi SW 6.9 mph - N/A   Clear
10:15 PM 52.2 °F - 21.6 °F 30% 29.91 in 10.0 mi SSW 5.8 mph - N/A   Clear
10:35 PM 48.9 °F - 21.2 °F 34% 29.92 in 10.0 mi SSW 5.8 mph - N/A   Clear
10:55 PM 48.2 °F - 22.1 °F 36% 29.93 in 10.0 mi SW 9.2 mph - N/A   Clear
11:15 PM 47.8 °F - 23.7 °F 39% 29.95 in 10.0 mi NNW 9.2 mph 18.4 mph N/A   Clear
11:35 PM 50.2 °F - 23.9 °F 36% 29.95 in 10.0 mi North 3.5 mph - N/A   Clear
11:55 PM 47.5 °F - 25.3 °F 42% 29.96 in 10.0 mi North 3.5 mph - N/A   Clear